Year,Month,Day,Hour,Minute,Value (Times are PST for temperature in C)
2017,05,25,00,00,6.80
2017,05,25,00,01,6.90
2017,05,25,00,02,6.90
2017,05,25,00,03,6.90
2017,05,25,00,04,6.90
2017,05,25,00,05,6.90
2017,05,25,00,06,6.90
2017,05,25,00,07,6.90
2017,05,25,00,08,6.90
2017,05,25,00,09,6.90
2017,05,25,00,10,6.90
2017,05,25,00,11,6.90
2017,05,25,00,12,6.90
2017,05,25,00,13,6.90
2017,05,25,00,14,6.90
2017,05,25,00,15,6.90
2017,05,25,00,16,6.90
2017,05,25,00,17,6.90
2017,05,25,00,18,6.90
2017,05,25,00,19,6.90
2017,05,25,00,20,6.90
2017,05,25,00,21,6.90
2017,05,25,00,22,6.90
2017,05,25,00,23,6.90
2017,05,25,00,24,6.90
2017,05,25,00,25,6.90
2017,05,25,00,26,6.90
2017,05,25,00,27,6.90
2017,05,25,00,28,6.90
2017,05,25,00,29,6.90
2017,05,25,00,30,6.90
2017,05,25,00,31,6.90
2017,05,25,00,32,6.90
2017,05,25,00,33,6.90
2017,05,25,00,34,6.90
2017,05,25,00,35,6.90
2017,05,25,00,36,6.90
2017,05,25,00,37,6.90
2017,05,25,00,38,6.90
2017,05,25,00,39,6.90
2017,05,25,00,40,6.90
2017,05,25,00,41,6.90
2017,05,25,00,42,6.90
2017,05,25,00,43,6.90
2017,05,25,00,44,6.90
2017,05,25,00,45,6.90
2017,05,25,00,46,6.90
2017,05,25,00,47,6.90
2017,05,25,00,48,6.90
2017,05,25,00,49,6.90
2017,05,25,00,50,6.90
2017,05,25,00,51,6.80
2017,05,25,00,52,6.80
2017,05,25,00,53,6.80
2017,05,25,00,54,6.80
2017,05,25,00,55,6.80
2017,05,25,00,56,6.80
2017,05,25,00,57,6.80
2017,05,25,00,58,6.80
2017,05,25,00,59,6.80
2017,05,25,01,00,6.80
2017,05,25,01,01,6.80
2017,05,25,01,02,6.80
2017,05,25,01,03,6.80
2017,05,25,01,04,6.80
2017,05,25,01,05,6.80
2017,05,25,01,06,6.90
2017,05,25,01,07,6.90
2017,05,25,01,08,6.90
2017,05,25,01,09,6.90
2017,05,25,01,10,6.90
2017,05,25,01,11,6.90
2017,05,25,01,12,6.90
2017,05,25,01,13,7.00
2017,05,25,01,14,7.00
2017,05,25,01,15,7.00
2017,05,25,01,16,7.00
2017,05,25,01,17,7.00
2017,05,25,01,18,7.00
2017,05,25,01,19,7.10
2017,05,25,01,20,7.10
2017,05,25,01,21,7.10
2017,05,25,01,22,7.10
2017,05,25,01,23,7.10
2017,05,25,01,24,7.10
2017,05,25,01,25,7.20
2017,05,25,01,26,7.20
2017,05,25,01,27,7.20
2017,05,25,01,28,7.20
2017,05,25,01,29,7.20
2017,05,25,01,30,7.20
2017,05,25,01,31,7.20
2017,05,25,01,32,7.20
2017,05,25,01,33,7.20
2017,05,25,01,34,7.20
2017,05,25,01,35,7.20
2017,05,25,01,36,7.20
2017,05,25,01,37,7.20
2017,05,25,01,38,7.20
2017,05,25,01,39,7.20
2017,05,25,01,40,7.20
2017,05,25,01,41,7.20
2017,05,25,01,42,7.20
2017,05,25,01,43,7.20
2017,05,25,01,44,7.20
2017,05,25,01,45,7.20
2017,05,25,01,46,7.20
2017,05,25,01,47,7.20
2017,05,25,01,48,7.20
2017,05,25,01,49,7.20
2017,05,25,01,50,7.20
2017,05,25,01,51,7.20
2017,05,25,01,52,7.20
2017,05,25,01,53,7.20
2017,05,25,01,54,7.10
2017,05,25,01,55,7.10
2017,05,25,01,56,7.10
2017,05,25,01,57,7.10
2017,05,25,01,58,7.10
2017,05,25,01,59,7.10
2017,05,25,02,00,7.10
2017,05,25,02,01,7.10
2017,05,25,02,02,7.00
2017,05,25,02,03,7.00
2017,05,25,02,04,7.00
2017,05,25,02,05,7.00
2017,05,25,02,06,7.00
2017,05,25,02,07,7.10
2017,05,25,02,08,7.10
2017,05,25,02,09,7.10
2017,05,25,02,10,7.10
2017,05,25,02,11,7.20
2017,05,25,02,12,7.20
2017,05,25,02,13,7.20
2017,05,25,02,14,7.30
2017,05,25,02,15,7.30
2017,05,25,02,16,7.30
2017,05,25,02,17,7.30
2017,05,25,02,18,7.30
2017,05,25,02,19,7.30
2017,05,25,02,20,7.30
2017,05,25,02,21,7.30
2017,05,25,02,22,7.40
2017,05,25,02,23,7.40
2017,05,25,02,24,7.40
2017,05,25,02,25,7.40
2017,05,25,02,26,7.40
2017,05,25,02,27,7.40
2017,05,25,02,28,7.40
2017,05,25,02,29,7.50
2017,05,25,02,30,7.50
2017,05,25,02,31,7.50
2017,05,25,02,32,7.50
2017,05,25,02,33,7.50
2017,05,25,02,34,7.50
2017,05,25,02,35,7.50
2017,05,25,02,36,7.60
2017,05,25,02,37,7.60
2017,05,25,02,38,7.60
2017,05,25,02,39,7.60
2017,05,25,02,40,7.60
2017,05,25,02,41,7.60
2017,05,25,02,42,7.60
2017,05,25,02,43,7.60
2017,05,25,02,44,7.70
2017,05,25,02,45,7.70
2017,05,25,02,46,7.70
2017,05,25,02,47,7.70
2017,05,25,02,48,7.70
2017,05,25,02,49,7.70
2017,05,25,02,50,7.70
2017,05,25,02,51,7.70
2017,05,25,02,52,7.70
2017,05,25,02,53,7.80
2017,05,25,02,54,7.80
2017,05,25,02,55,7.80
2017,05,25,02,56,7.80
2017,05,25,02,57,7.90
2017,05,25,02,58,7.90
2017,05,25,02,59,7.90
2017,05,25,03,00,8.00
2017,05,25,03,01,8.00
2017,05,25,03,02,8.00
2017,05,25,03,03,8.00
2017,05,25,03,04,8.10
2017,05,25,03,05,8.10
2017,05,25,03,06,8.10
2017,05,25,03,07,8.10
2017,05,25,03,08,8.10
2017,05,25,03,09,8.10
2017,05,25,03,10,8.10
2017,05,25,03,11,8.10
2017,05,25,03,12,8.10
2017,05,25,03,13,8.10
2017,05,25,03,14,8.10
2017,05,25,03,15,8.10
2017,05,25,03,16,8.10
2017,05,25,03,17,8.10
2017,05,25,03,18,8.10
2017,05,25,03,19,8.10
2017,05,25,03,20,8.10
2017,05,25,03,21,8.10
2017,05,25,03,22,8.00
2017,05,25,03,23,8.00
2017,05,25,03,24,8.00
2017,05,25,03,25,8.00
2017,05,25,03,26,8.00
2017,05,25,03,27,7.90
2017,05,25,03,28,7.90
2017,05,25,03,29,7.90
2017,05,25,03,30,7.90
2017,05,25,03,31,7.80
2017,05,25,03,32,7.80
2017,05,25,03,33,7.80
2017,05,25,03,34,7.80
2017,05,25,03,35,7.80
2017,05,25,03,36,7.80
2017,05,25,03,37,7.70
2017,05,25,03,38,7.70
2017,05,25,03,39,7.70
2017,05,25,03,40,7.70
2017,05,25,03,41,7.60
2017,05,25,03,42,7.60
2017,05,25,03,43,7.60
2017,05,25,03,44,7.60
2017,05,25,03,45,7.50
2017,05,25,03,46,7.50
2017,05,25,03,47,7.50
2017,05,25,03,48,7.50
2017,05,25,03,49,7.40
2017,05,25,03,50,7.40
2017,05,25,03,51,7.40
2017,05,25,03,52,7.40
2017,05,25,03,53,7.30
2017,05,25,03,54,7.30
2017,05,25,03,55,7.30
2017,05,25,03,56,7.30
2017,05,25,03,57,7.30
2017,05,25,03,58,7.30
2017,05,25,03,59,7.30
2017,05,25,04,00,7.30
2017,05,25,04,01,7.30
2017,05,25,04,02,7.30
2017,05,25,04,03,7.30
2017,05,25,04,04,7.30
2017,05,25,04,05,7.30
2017,05,25,04,06,7.30
2017,05,25,04,07,7.30
2017,05,25,04,08,7.30
2017,05,25,04,09,7.30
2017,05,25,04,10,7.30
2017,05,25,04,11,7.30
2017,05,25,04,12,7.30
2017,05,25,04,13,7.30
2017,05,25,04,14,7.30
2017,05,25,04,15,7.20
2017,05,25,04,16,7.20
2017,05,25,04,17,7.20
2017,05,25,04,18,7.10
2017,05,25,04,19,7.10
2017,05,25,04,20,7.00
2017,05,25,04,21,7.00
2017,05,25,04,22,7.00
2017,05,25,04,23,6.90
2017,05,25,04,24,6.90
2017,05,25,04,25,6.90
2017,05,25,04,26,6.80
2017,05,25,04,27,6.80
2017,05,25,04,28,6.80
2017,05,25,04,29,6.80
2017,05,25,04,30,6.80
2017,05,25,04,31,6.80
2017,05,25,04,32,6.80
2017,05,25,04,33,6.80
2017,05,25,04,34,6.80
2017,05,25,04,35,6.80
2017,05,25,04,36,6.80
2017,05,25,04,37,6.80
2017,05,25,04,38,6.80
2017,05,25,04,39,6.80
2017,05,25,04,40,6.80
2017,05,25,04,41,6.80
2017,05,25,04,42,6.80
2017,05,25,04,43,6.80
2017,05,25,04,44,6.80
2017,05,25,04,45,6.80
2017,05,25,04,46,6.80
2017,05,25,04,47,6.80
2017,05,25,04,48,6.80
2017,05,25,04,49,6.80
2017,05,25,04,50,6.80
2017,05,25,04,51,6.90
2017,05,25,04,52,6.90
2017,05,25,04,53,6.90
2017,05,25,04,54,6.90
2017,05,25,04,55,6.90
2017,05,25,04,56,7.00
2017,05,25,04,57,7.00
2017,05,25,04,58,7.00
2017,05,25,04,59,7.00
2017,05,25,05,00,6.90
2017,05,25,05,01,6.90
2017,05,25,05,02,6.90
2017,05,25,05,03,6.90
2017,05,25,05,04,6.90
2017,05,25,05,05,6.90
2017,05,25,05,06,6.90
2017,05,25,05,07,6.90
2017,05,25,05,08,6.90
2017,05,25,05,09,6.90
2017,05,25,05,10,6.90
2017,05,25,05,11,6.90
2017,05,25,05,12,6.80
2017,05,25,05,13,6.80
2017,05,25,05,14,6.80
2017,05,25,05,15,6.80
2017,05,25,05,16,6.80
2017,05,25,05,17,6.80
2017,05,25,05,18,6.80
2017,05,25,05,19,6.80
2017,05,25,05,20,6.80
2017,05,25,05,21,6.80
2017,05,25,05,22,6.80
2017,05,25,05,23,6.80
2017,05,25,05,24,6.80
2017,05,25,05,25,6.80
2017,05,25,05,26,6.80
2017,05,25,05,27,6.80
2017,05,25,05,28,6.80
2017,05,25,05,29,6.80
2017,05,25,05,30,6.80
2017,05,25,05,31,6.80
2017,05,25,05,32,6.80
2017,05,25,05,33,6.80
2017,05,25,05,34,6.80
2017,05,25,05,35,6.80
2017,05,25,05,36,6.80
2017,05,25,05,37,6.80
2017,05,25,05,38,6.80
2017,05,25,05,39,6.80
2017,05,25,05,40,6.80
2017,05,25,05,41,6.80
2017,05,25,05,42,6.80
2017,05,25,05,43,6.80
2017,05,25,05,44,6.80
2017,05,25,05,45,6.80
2017,05,25,05,46,6.80
2017,05,25,05,47,6.80
2017,05,25,05,48,6.80
2017,05,25,05,49,6.80
2017,05,25,05,50,6.80
2017,05,25,05,51,6.80
2017,05,25,05,52,6.80
2017,05,25,05,53,6.80
2017,05,25,05,54,6.80
2017,05,25,05,55,6.80
2017,05,25,05,56,6.80
2017,05,25,05,57,6.80
2017,05,25,05,58,6.80
2017,05,25,05,59,6.80
2017,05,25,06,00,6.80
2017,05,25,06,01,6.80
2017,05,25,06,02,6.80
2017,05,25,06,03,6.80
2017,05,25,06,04,6.80
2017,05,25,06,05,6.80
2017,05,25,06,06,6.80
2017,05,25,06,07,6.80
2017,05,25,06,08,6.80
2017,05,25,06,09,6.80
2017,05,25,06,10,6.80
2017,05,25,06,11,6.80
2017,05,25,06,12,6.80
2017,05,25,06,13,6.80
2017,05,25,06,14,6.80
2017,05,25,06,15,6.80
2017,05,25,06,16,6.80
2017,05,25,06,17,6.80
2017,05,25,06,18,6.80
2017,05,25,06,19,6.80
2017,05,25,06,20,6.80
2017,05,25,06,21,6.80
2017,05,25,06,22,6.80
2017,05,25,06,23,6.80
2017,05,25,06,24,6.80
2017,05,25,06,25,6.80
2017,05,25,06,26,6.80
2017,05,25,06,27,6.80
2017,05,25,06,28,6.90
2017,05,25,06,29,7.00
2017,05,25,06,30,7.10
2017,05,25,06,31,7.20
2017,05,25,06,32,7.30
2017,05,25,06,33,7.40
2017,05,25,06,34,7.50
2017,05,25,06,35,7.60
2017,05,25,06,36,7.60
2017,05,25,06,37,7.70
2017,05,25,06,38,7.80
2017,05,25,06,39,7.80
2017,05,25,06,40,7.80
2017,05,25,06,41,7.80
2017,05,25,06,42,7.90
2017,05,25,06,43,7.90
2017,05,25,06,44,8.00
2017,05,25,06,45,8.00
2017,05,25,06,46,8.00
2017,05,25,06,47,8.00
2017,05,25,06,48,8.10
2017,05,25,06,49,8.10
2017,05,25,06,50,8.20
2017,05,25,06,51,8.20
2017,05,25,06,52,8.20
2017,05,25,06,53,8.20
2017,05,25,06,54,8.20
2017,05,25,06,55,8.30
2017,05,25,06,56,8.30
2017,05,25,06,57,8.30
2017,05,25,06,58,8.40
2017,05,25,06,59,8.40
2017,05,25,07,00,8.50
2017,05,25,07,01,8.50
2017,05,25,07,02,8.50
2017,05,25,07,03,8.60
2017,05,25,07,04,8.60
2017,05,25,07,05,8.60
2017,05,25,07,06,8.70
2017,05,25,07,07,8.70
2017,05,25,07,08,8.70
2017,05,25,07,09,8.70
2017,05,25,07,10,8.80
2017,05,25,07,11,8.80
2017,05,25,07,12,8.90
2017,05,25,07,13,9.00
2017,05,25,07,14,9.10
2017,05,25,07,15,9.10
2017,05,25,07,16,9.20
2017,05,25,07,17,9.30
2017,05,25,07,18,9.40
2017,05,25,07,19,9.50
2017,05,25,07,20,9.60
2017,05,25,07,21,9.70
2017,05,25,07,22,9.70
2017,05,25,07,23,9.80
2017,05,25,07,24,9.90
2017,05,25,07,25,10.00
2017,05,25,07,26,10.10
2017,05,25,07,27,10.10
2017,05,25,07,28,10.20
2017,05,25,07,29,10.30
2017,05,25,07,30,10.30
2017,05,25,07,31,10.30
2017,05,25,07,32,10.30
2017,05,25,07,33,10.40
2017,05,25,07,34,10.40
2017,05,25,07,35,10.40
2017,05,25,07,36,10.50
2017,05,25,07,37,10.60
2017,05,25,07,38,10.60
2017,05,25,07,39,10.60
2017,05,25,07,40,10.60
2017,05,25,07,41,10.70
2017,05,25,07,42,10.70
2017,05,25,07,43,10.70
2017,05,25,07,44,10.80
2017,05,25,07,45,10.80
2017,05,25,07,46,10.80
2017,05,25,07,47,10.80
2017,05,25,07,48,10.80
2017,05,25,07,49,10.90
2017,05,25,07,50,10.90
2017,05,25,07,51,10.90
2017,05,25,07,52,10.90
2017,05,25,07,53,10.90
2017,05,25,07,54,10.90
2017,05,25,07,55,10.90
2017,05,25,07,56,10.90
2017,05,25,07,57,10.90
2017,05,25,07,58,10.90
2017,05,25,07,59,10.90
2017,05,25,08,00,10.90
2017,05,25,08,01,10.90
2017,05,25,08,02,10.90
2017,05,25,08,03,10.90
2017,05,25,08,04,10.80
2017,05,25,08,05,10.80
2017,05,25,08,06,10.80
2017,05,25,08,07,10.90
2017,05,25,08,08,10.90
2017,05,25,08,09,10.90
2017,05,25,08,10,10.90
2017,05,25,08,11,11.00
2017,05,25,08,12,11.10
2017,05,25,08,13,11.10
2017,05,25,08,14,11.20
2017,05,25,08,15,11.30
2017,05,25,08,16,11.30
2017,05,25,08,17,11.40
2017,05,25,08,18,11.50
2017,05,25,08,19,11.60
2017,05,25,08,20,11.60
2017,05,25,08,21,11.80
2017,05,25,08,22,11.80
2017,05,25,08,23,11.90
2017,05,25,08,24,12.00
2017,05,25,08,25,12.10
2017,05,25,08,26,12.20
2017,05,25,08,27,12.30
2017,05,25,08,28,12.30
2017,05,25,08,29,12.50
2017,05,25,08,30,12.50
2017,05,25,08,31,12.60
2017,05,25,08,32,12.70
2017,05,25,08,33,12.80
2017,05,25,08,34,12.80
2017,05,25,08,35,12.90
2017,05,25,08,36,13.00
2017,05,25,08,37,13.10
2017,05,25,08,38,13.10
2017,05,25,08,39,13.10
2017,05,25,08,40,13.10
2017,05,25,08,41,13.10
2017,05,25,08,42,13.20
2017,05,25,08,43,13.30
2017,05,25,08,44,13.30
2017,05,25,08,45,13.30
2017,05,25,08,46,13.30
2017,05,25,08,47,13.30
2017,05,25,08,48,13.40
2017,05,25,08,49,13.40
2017,05,25,08,50,13.40
2017,05,25,08,51,13.40
2017,05,25,08,52,13.50
2017,05,25,08,53,13.50
2017,05,25,08,54,13.60
2017,05,25,08,55,13.60
2017,05,25,08,56,13.70
2017,05,25,08,57,13.70
2017,05,25,08,58,13.70
2017,05,25,08,59,13.70
2017,05,25,09,00,13.70
2017,05,25,09,01,13.70
2017,05,25,09,02,13.70
2017,05,25,09,03,13.80
2017,05,25,09,04,13.80
2017,05,25,09,05,13.80
2017,05,25,09,06,13.90
2017,05,25,09,07,13.90
2017,05,25,09,08,14.00
2017,05,25,09,09,14.00
2017,05,25,09,10,14.00
2017,05,25,09,11,14.00
2017,05,25,09,12,14.00
2017,05,25,09,13,14.00
2017,05,25,09,14,14.00
2017,05,25,09,15,14.00
2017,05,25,09,16,14.00
2017,05,25,09,17,14.10
2017,05,25,09,18,14.10
2017,05,25,09,19,14.10
2017,05,25,09,20,14.10
2017,05,25,09,21,14.10
2017,05,25,09,22,14.10
2017,05,25,09,23,14.10
2017,05,25,09,24,14.10
2017,05,25,09,25,14.00
2017,05,25,09,26,14.00
2017,05,25,09,27,14.00
2017,05,25,09,28,13.90
2017,05,25,09,29,13.90
2017,05,25,09,30,13.90
2017,05,25,09,31,14.00
2017,05,25,09,32,14.00
2017,05,25,09,33,14.00
2017,05,25,09,34,14.00
2017,05,25,09,35,14.10
2017,05,25,09,36,14.10
2017,05,25,09,37,14.10
2017,05,25,09,38,14.20
2017,05,25,09,39,14.20
2017,05,25,09,40,14.10
2017,05,25,09,41,14.10
2017,05,25,09,42,14.10
2017,05,25,09,43,14.10
2017,05,25,09,44,14.20
2017,05,25,09,45,14.20
2017,05,25,09,46,14.20
2017,05,25,09,47,14.40
2017,05,25,09,48,14.50
2017,05,25,09,49,14.50
2017,05,25,09,50,14.50
2017,05,25,09,51,14.50
2017,05,25,09,52,14.60
2017,05,25,09,53,14.60
2017,05,25,09,54,14.60
2017,05,25,09,55,14.70
2017,05,25,09,56,14.70
2017,05,25,09,57,14.70
2017,05,25,09,58,14.80
2017,05,25,09,59,14.70
2017,05,25,10,00,14.70
2017,05,25,10,01,14.70
2017,05,25,10,02,14.70
2017,05,25,10,03,14.70
2017,05,25,10,04,14.70
2017,05,25,10,05,14.70
2017,05,25,10,06,14.70
2017,05,25,10,07,14.70
2017,05,25,10,08,14.70
2017,05,25,10,09,14.70
2017,05,25,10,10,14.70
2017,05,25,10,11,14.70
2017,05,25,10,12,14.60
2017,05,25,10,13,14.70
2017,05,25,10,14,14.70
2017,05,25,10,15,14.80
2017,05,25,10,16,14.70
2017,05,25,10,17,14.70
2017,05,25,10,18,14.70
2017,05,25,10,19,14.70
2017,05,25,10,20,14.80
2017,05,25,10,21,14.80
2017,05,25,10,22,14.80
2017,05,25,10,23,14.90
2017,05,25,10,24,14.90
2017,05,25,10,25,15.00
2017,05,25,10,26,15.10
2017,05,25,10,27,15.20
2017,05,25,10,28,15.20
2017,05,25,10,29,15.20
2017,05,25,10,30,15.20
2017,05,25,10,31,15.30
2017,05,25,10,32,15.30
2017,05,25,10,33,15.40
2017,05,25,10,34,15.50
2017,05,25,10,35,15.50
2017,05,25,10,36,15.50
2017,05,25,10,37,15.40
2017,05,25,10,38,15.30
2017,05,25,10,39,15.30
2017,05,25,10,40,15.30
2017,05,25,10,41,15.40
2017,05,25,10,42,15.40
2017,05,25,10,43,15.40
2017,05,25,10,44,15.40
2017,05,25,10,45,15.40
2017,05,25,10,46,15.50
2017,05,25,10,47,15.50
2017,05,25,10,48,15.60
2017,05,25,10,49,15.60
2017,05,25,10,50,15.80
2017,05,25,10,51,15.90
2017,05,25,10,52,15.90
2017,05,25,10,53,16.10
2017,05,25,10,54,16.10
2017,05,25,10,55,16.10
2017,05,25,10,56,16.10
2017,05,25,10,57,16.10
2017,05,25,10,58,16.10
2017,05,25,10,59,16.10
2017,05,25,11,00,16.10
2017,05,25,11,01,16.10
2017,05,25,11,02,16.10
2017,05,25,11,03,16.10
2017,05,25,11,04,16.10
2017,05,25,11,05,16.10
2017,05,25,11,06,16.20
2017,05,25,11,07,16.20
2017,05,25,11,08,16.20
2017,05,25,11,09,16.30
2017,05,25,11,10,16.30
2017,05,25,11,11,16.40
2017,05,25,11,12,16.40
2017,05,25,11,13,16.40
2017,05,25,11,14,16.40
2017,05,25,11,15,16.40
2017,05,25,11,16,16.60
2017,05,25,11,17,16.60
2017,05,25,11,18,16.70
2017,05,25,11,19,16.70
2017,05,25,11,20,16.70
2017,05,25,11,21,16.70
2017,05,25,11,22,16.70
2017,05,25,11,23,16.70
2017,05,25,11,24,16.70
2017,05,25,11,25,16.80
2017,05,25,11,26,16.80
2017,05,25,11,27,16.80
2017,05,25,11,28,16.80
2017,05,25,11,29,16.90
2017,05,25,11,30,16.90
2017,05,25,11,31,16.90
2017,05,25,11,32,17.00
2017,05,25,11,33,17.10
2017,05,25,11,34,17.20
2017,05,25,11,35,17.20
2017,05,25,11,36,17.30
2017,05,25,11,37,17.30
2017,05,25,11,38,17.30
2017,05,25,11,39,17.30
2017,05,25,11,40,17.30
2017,05,25,11,41,17.30
2017,05,25,11,42,17.30
2017,05,25,11,43,17.30
2017,05,25,11,44,17.30
2017,05,25,11,45,17.30
2017,05,25,11,46,17.30
2017,05,25,11,47,17.40
2017,05,25,11,48,17.40
2017,05,25,11,49,17.40
2017,05,25,11,50,17.40
2017,05,25,11,51,17.40
2017,05,25,11,52,17.50
2017,05,25,11,53,17.60
2017,05,25,11,54,17.60
2017,05,25,11,55,17.60
2017,05,25,11,56,17.70
2017,05,25,11,57,17.70
2017,05,25,11,58,17.70
2017,05,25,11,59,17.70
2017,05,25,12,00,17.70
2017,05,25,12,01,17.60
2017,05,25,12,02,17.60
2017,05,25,12,03,17.60
2017,05,25,12,04,17.70
2017,05,25,12,05,17.60
2017,05,25,12,06,17.60
2017,05,25,12,07,17.50
2017,05,25,12,08,17.60
2017,05,25,12,09,17.60
2017,05,25,12,10,17.60
2017,05,25,12,11,17.50
2017,05,25,12,12,17.60
2017,05,25,12,13,17.60
2017,05,25,12,14,17.60
2017,05,25,12,15,17.60
2017,05,25,12,16,17.60
2017,05,25,12,17,17.70
2017,05,25,12,18,17.70
2017,05,25,12,19,17.70
2017,05,25,12,20,17.70
2017,05,25,12,21,17.70
2017,05,25,12,22,17.50
2017,05,25,12,23,17.40
2017,05,25,12,24,17.50
2017,05,25,12,25,17.50
2017,05,25,12,26,17.50
2017,05,25,12,27,17.40
2017,05,25,12,28,17.30
2017,05,25,12,29,17.50
2017,05,25,12,30,17.60
2017,05,25,12,31,17.80
2017,05,25,12,32,17.90
2017,05,25,12,33,18.10
2017,05,25,12,34,18.20
2017,05,25,12,35,18.40
2017,05,25,12,36,18.50
2017,05,25,12,37,18.70
2017,05,25,12,38,18.80
2017,05,25,12,39,18.90
2017,05,25,12,40,19.10
2017,05,25,12,41,19.10
2017,05,25,12,42,19.10
2017,05,25,12,43,19.10
2017,05,25,12,44,19.00
2017,05,25,12,45,18.90
2017,05,25,12,46,18.80
2017,05,25,12,47,18.80
2017,05,25,12,48,18.80
2017,05,25,12,49,18.80
2017,05,25,12,50,18.80
2017,05,25,12,51,18.80
2017,05,25,12,52,18.80
2017,05,25,12,53,18.70
2017,05,25,12,54,18.70
2017,05,25,12,55,18.80
2017,05,25,12,56,18.80
2017,05,25,12,57,18.70
2017,05,25,12,58,18.70
2017,05,25,12,59,18.80
2017,05,25,13,00,18.80
2017,05,25,13,01,18.80
2017,05,25,13,02,18.90
2017,05,25,13,03,18.80
2017,05,25,13,04,18.90
2017,05,25,13,05,18.90
2017,05,25,13,06,19.00
2017,05,25,13,07,19.10
2017,05,25,13,08,19.10
2017,05,25,13,09,19.10
2017,05,25,13,10,19.10
2017,05,25,13,11,19.10
2017,05,25,13,12,19.20
2017,05,25,13,13,19.20
2017,05,25,13,14,19.20
2017,05,25,13,15,19.30
2017,05,25,13,16,19.30
2017,05,25,13,17,19.20
2017,05,25,13,18,19.00
2017,05,25,13,19,18.90
2017,05,25,13,20,18.90
2017,05,25,13,21,18.90
2017,05,25,13,22,18.80
2017,05,25,13,23,18.70
2017,05,25,13,24,18.60
2017,05,25,13,25,18.60
2017,05,25,13,26,18.60
2017,05,25,13,27,18.70
2017,05,25,13,28,18.70
2017,05,25,13,29,18.70
2017,05,25,13,30,18.80
2017,05,25,13,31,18.80
2017,05,25,13,32,18.80
2017,05,25,13,33,18.90
2017,05,25,13,34,18.90
2017,05,25,13,35,18.70
2017,05,25,13,36,18.60
2017,05,25,13,37,18.50
2017,05,25,13,38,18.50
2017,05,25,13,39,18.60
2017,05,25,13,40,18.60
2017,05,25,13,41,18.60
2017,05,25,13,42,18.50
2017,05,25,13,43,18.60
2017,05,25,13,44,18.60
2017,05,25,13,45,18.70
2017,05,25,13,46,18.80
2017,05,25,13,47,18.90
2017,05,25,13,48,18.90
2017,05,25,13,49,19.00
2017,05,25,13,50,19.10
2017,05,25,13,51,19.10
2017,05,25,13,52,19.10
2017,05,25,13,53,19.20
2017,05,25,13,54,19.30
2017,05,25,13,55,19.40
2017,05,25,13,56,19.50
2017,05,25,13,57,19.60
2017,05,25,13,58,19.60
2017,05,25,13,59,19.60
2017,05,25,14,00,19.60
2017,05,25,14,01,19.60
2017,05,25,14,02,19.50
2017,05,25,14,03,19.40
2017,05,25,14,04,19.30
2017,05,25,14,05,19.40
2017,05,25,14,06,19.40
2017,05,25,14,07,19.40
2017,05,25,14,08,19.40
2017,05,25,14,09,19.30
2017,05,25,14,10,19.30
2017,05,25,14,11,19.30
2017,05,25,14,12,19.10
2017,05,25,14,13,19.10
2017,05,25,14,14,19.30
2017,05,25,14,15,19.30
2017,05,25,14,16,19.40
2017,05,25,14,17,19.40
2017,05,25,14,18,19.40
2017,05,25,14,19,19.50
2017,05,25,14,20,19.60
2017,05,25,14,21,19.80
2017,05,25,14,22,19.90
2017,05,25,14,23,20.00
2017,05,25,14,24,20.10
2017,05,25,14,25,20.20
2017,05,25,14,26,20.30
2017,05,25,14,27,20.30
2017,05,25,14,28,20.20
2017,05,25,14,29,20.20
2017,05,25,14,30,20.20
2017,05,25,14,31,20.20
2017,05,25,14,32,20.20
2017,05,25,14,33,20.20
2017,05,25,14,34,20.20
2017,05,25,14,35,20.20
2017,05,25,14,36,20.20
2017,05,25,14,37,20.20
2017,05,25,14,38,20.20
2017,05,25,14,39,20.30
2017,05,25,14,40,20.50
2017,05,25,14,41,20.60
2017,05,25,14,42,20.70
2017,05,25,14,43,20.90
2017,05,25,14,44,21.00
2017,05,25,14,45,21.00
2017,05,25,14,46,20.90
2017,05,25,14,47,21.00
2017,05,25,14,48,21.00
2017,05,25,14,49,21.00
2017,05,25,14,50,21.00
2017,05,25,14,51,20.90
2017,05,25,14,52,20.80
2017,05,25,14,53,20.70
2017,05,25,14,54,20.80
2017,05,25,14,55,20.80
2017,05,25,14,56,20.80
2017,05,25,14,57,20.90
2017,05,25,14,58,20.90
2017,05,25,14,59,21.00
2017,05,25,15,00,21.00
2017,05,25,15,01,21.00
2017,05,25,15,02,21.00
2017,05,25,15,03,21.00
2017,05,25,15,04,21.10
2017,05,25,15,05,21.10
2017,05,25,15,06,21.10
2017,05,25,15,07,21.20
2017,05,25,15,08,21.20
2017,05,25,15,09,21.30
2017,05,25,15,10,21.30
2017,05,25,15,11,21.20
2017,05,25,15,12,21.20
2017,05,25,15,13,21.20
2017,05,25,15,14,21.10
2017,05,25,15,15,21.20
2017,05,25,15,16,21.20
2017,05,25,15,17,21.30
2017,05,25,15,18,21.30
2017,05,25,15,19,21.30
2017,05,25,15,20,21.30
2017,05,25,15,21,21.30
2017,05,25,15,22,21.30
2017,05,25,15,23,21.30
2017,05,25,15,24,21.30
2017,05,25,15,25,21.30
2017,05,25,15,26,21.30
2017,05,25,15,27,21.30
2017,05,25,15,28,21.30
2017,05,25,15,29,21.40
2017,05,25,15,30,21.40
2017,05,25,15,31,21.50
2017,05,25,15,32,21.60
2017,05,25,15,33,21.60
2017,05,25,15,34,21.50
2017,05,25,15,35,21.40
2017,05,25,15,36,21.30
2017,05,25,15,37,21.30
2017,05,25,15,38,21.30
2017,05,25,15,39,21.30
2017,05,25,15,40,21.30
2017,05,25,15,41,21.30
2017,05,25,15,42,21.30
2017,05,25,15,43,21.30
2017,05,25,15,44,21.30
2017,05,25,15,45,21.30
2017,05,25,15,46,21.30
2017,05,25,15,47,21.30
2017,05,25,15,48,21.20
2017,05,25,15,49,21.20
2017,05,25,15,50,21.20
2017,05,25,15,51,21.10
2017,05,25,15,52,21.10
2017,05,25,15,53,21.10
2017,05,25,15,54,21.10
2017,05,25,15,55,21.00
2017,05,25,15,56,21.00
2017,05,25,15,57,21.00
2017,05,25,15,58,20.90
2017,05,25,15,59,20.90
2017,05,25,16,00,20.90
2017,05,25,16,01,20.90
2017,05,25,16,02,20.80
2017,05,25,16,03,20.80
2017,05,25,16,04,20.70
2017,05,25,16,05,20.70
2017,05,25,16,06,20.70
2017,05,25,16,07,20.60
2017,05,25,16,08,20.60
2017,05,25,16,09,20.60
2017,05,25,16,10,20.50
2017,05,25,16,11,20.50
2017,05,25,16,12,20.50
2017,05,25,16,13,20.50
2017,05,25,16,14,20.50
2017,05,25,16,15,20.50
2017,05,25,16,16,20.50
2017,05,25,16,17,20.50
2017,05,25,16,18,20.50
2017,05,25,16,19,20.40
2017,05,25,16,20,20.40
2017,05,25,16,21,20.40
2017,05,25,16,22,20.40
2017,05,25,16,23,20.40
2017,05,25,16,24,20.40
2017,05,25,16,25,20.40
2017,05,25,16,26,20.30
2017,05,25,16,27,20.20
2017,05,25,16,28,20.20
2017,05,25,16,29,20.20
2017,05,25,16,30,20.20
2017,05,25,16,31,20.20
2017,05,25,16,32,20.20
2017,05,25,16,33,20.20
2017,05,25,16,34,20.10
2017,05,25,16,35,20.10
2017,05,25,16,36,20.10
2017,05,25,16,37,20.10
2017,05,25,16,38,20.00
2017,05,25,16,39,19.90
2017,05,25,16,40,19.90
2017,05,25,16,41,19.90
2017,05,25,16,42,19.80
2017,05,25,16,43,19.80
2017,05,25,16,44,19.80
2017,05,25,16,45,19.70
2017,05,25,16,46,19.70
2017,05,25,16,47,19.70
2017,05,25,16,48,19.70
2017,05,25,16,49,19.70
2017,05,25,16,50,19.60
2017,05,25,16,51,19.60
2017,05,25,16,52,19.60
2017,05,25,16,53,19.60
2017,05,25,16,54,19.60
2017,05,25,16,55,19.60
2017,05,25,16,56,19.50
2017,05,25,16,57,19.50
2017,05,25,16,58,19.50
2017,05,25,16,59,19.50
2017,05,25,17,00,19.50
2017,05,25,17,01,19.50
2017,05,25,17,02,19.40
2017,05,25,17,03,19.40
2017,05,25,17,04,19.40
2017,05,25,17,05,19.40
2017,05,25,17,06,19.30
2017,05,25,17,07,19.30
2017,05,25,17,08,19.30
2017,05,25,17,09,19.20
2017,05,25,17,10,19.20
2017,05,25,17,11,19.20
2017,05,25,17,12,19.10
2017,05,25,17,13,19.10
2017,05,25,17,14,19.10
2017,05,25,17,15,19.10
2017,05,25,17,16,19.10
2017,05,25,17,17,19.10
2017,05,25,17,18,19.10
2017,05,25,17,19,19.10
2017,05,25,17,20,19.10
2017,05,25,17,21,19.10
2017,05,25,17,22,19.10
2017,05,25,17,23,19.10
2017,05,25,17,24,19.00
2017,05,25,17,25,18.90
2017,05,25,17,26,18.90
2017,05,25,17,27,18.90
2017,05,25,17,28,18.90
2017,05,25,17,29,18.90
2017,05,25,17,30,18.90
2017,05,25,17,31,18.90
2017,05,25,17,32,18.90
2017,05,25,17,33,18.80
2017,05,25,17,34,18.80
2017,05,25,17,35,18.70
2017,05,25,17,36,18.70
2017,05,25,17,37,18.70
2017,05,25,17,38,18.70